STARLINK-1820, 46717

Orbit data source: Space-Track

STARLINK-1820, 46717 is a payload satellite owned by SpaceX/Seattle (US) in LEO that was launched on Sun, 18 Oct 2020 UTC via an FALCON 9 launch vehicle from the Air Force Eastern Test Range (AFETR). Payload-class satellites include a variety of spacecraft equipped with specific instruments for various scientific and technological missions. These include communications satellites like Starlink; space stations such as the ISS; scientific satellites like the Hubble; Earth observation satellites from companies like Planet Labs, Umbra, and HawkEye 360; GPS; miniature CubeSats for education and research; and military/defense satellites.

Loading next visibility...
Identifier
46717, 2020-073AZ
Orbit
LEO
Country
Flag of USUS
Related business
Manufacturer
SpaceX/Seattle
Mission
Partially operational Commercial Communications
Bus & Motor
STARLINK, Unknown motor
Mass
260 kg wet, ~248 kg dry
Launch date (UTC)
2020-10-18 (5 years ago)
Launch vehicle
FALCON 9
Launch site
Air Force Eastern Test Range (AFETR)
Object type
Payload
Rocket body
Debris
Shape & HBR
Box + 1 Pan, 10.1 m
Radar Cross Section
13.562 m², Large (>1 m²)

Expand to show TLE details & history
Last TLE update: 19 hours ago

TLE from 19 hours ago
0 STARLINK-1820
1 46717U 20073AZ  25286.37069994  .00105566  00000-0  29168-2 0  9998
2 46717  53.0572 157.6334 0012295 120.9522 239.2690 15.36157367275287
Epoch: 2025-10-13T08:53Z
TLE epoch observation values (Epoch: 2025-10-13T08:53:48.474Z)
Latitude
-0.00003°
Longitude
2.00695°
Altitude
462.678 km
Speed
7.634 km/s
True Right ascension
10h 30m 32s
True Declination
0° 00' 00"
Sunlit
Object was in daylight at epoch
Visualization orbit readout
Latitude
Unknown
Longitude
Unknown
Altitude
Unknown
Speed
Unknown
Apparent Right ascension
Unknown
Apparent Declination
Unknown
Sunlit
N/A
Visualization observer readout
Local Sidereal Time
22:10:12
Azimuth
Unknown
Elevation
Unknown
Doppler factor
Unknown
Orbital elements
Apogee altitude
466.163 km
Perigee altitude
449.354 km
Semi-major axis
6,835.896 km
Eccentricity
0.00123
Inclination
53.0572°
RAAN
157.6334°
Arg. of periapsis
120.9522°
True anomaly
239.14799°
Mean anomaly
239.269°
Eccentric anomaly
239.20849°
Mean motion
3.84017 °/min
Orbital period
93.75 mins
BSTAR
0.0029168
Loading maneuver chart data...
Computing Atmospheric mass density...
Loading historical data...
Loading historical data...
Loading historical data...
Loading historical data...
Loading historical data...
Loading historical data...
Loading historical data...

Documentation

Showing up to 5 results
|